Hourly Weather Rudnya Olhovka

Today, 22 April, Thursday

Time Temperature Precipitation Wind Pressure Humidity
00:00 +5°C° 0.1 mm 3 mps 746 mmHg 93%
01:00 +5°C° 0.1 mm 3 mps 747 mmHg 93%
02:00 +5°C° 0 mm 3 mps 747 mmHg 93%
03:00 +4°C° 0 mm 3 mps 747 mmHg 93%
04:00 +4°C° 0 mm 3 mps 747 mmHg 93%
05:00 +4°C° 0 mm 3 mps 747 mmHg 93%
06:00 +7°C° 0 mm 3 mps 747 mmHg 87%
07:00 +8°C° 0 mm 3 mps 747 mmHg 82%
08:00 +10°C° 0 mm 4 mps 748 mmHg 76%
09:00 +11°C° 0.2 mm 4 mps 748 mmHg 69%
10:00 +13°C° 0.2 mm 5 mps 748 mmHg 63%
11:00 +14°C° 0.2 mm 5 mps 748 mmHg 56%
12:00 +15°C° 0.2 mm 5 mps 748 mmHg 54%
13:00 +15°C° 0.2 mm 5 mps 747 mmHg 51%
14:00 +16°C° 0.2 mm 5 mps 747 mmHg 48%
15:00 +15°C° 0.3 mm 5 mps 747 mmHg 55%
16:00 +14°C° 0.3 mm 5 mps 747 mmHg 61%
17:00 +13°C° 0.3 mm 4 mps 747 mmHg 67%
18:00 +12°C° 0.5 mm 4 mps 747 mmHg 74%
19:00 +11°C° 0.5 mm 4 mps 747 mmHg 80%
20:00 +10°C° 0.5 mm 4 mps 747 mmHg 86%
21:00 +8°C° 0.3 mm 4 mps 747 mmHg 88%
22:00 +8°C° 0.3 mm 4 mps 747 mmHg 90%
23:00 +7°C° 0.3 mm 4 mps 747 mmHg 93%

Tomorrow, 23 April, Friday

Time Temperature Precipitation Wind Pressure Humidity
00:00 +7°C° 0.2 mm 4 mps 747 mmHg 90%
01:00 +6°C° 0.2 mm 4 mps 748 mmHg 88%
02:00 +5°C° 0.2 mm 4 mps 748 mmHg 86%
03:00 +5°C° 0.5 mm 4 mps 748 mmHg 86%
04:00 +4°C° 0.5 mm 3 mps 748 mmHg 87%
05:00 +4°C° 0.5 mm 3 mps 748 mmHg 87%
06:00 +4°C° 0 mm 3 mps 749 mmHg 82%
07:00 +5°C° 0 mm 4 mps 749 mmHg 76%
08:00 +5°C° 0 mm 4 mps 749 mmHg 71%
09:00 +6°C° 0 mm 4 mps 749 mmHg 64%
10:00 +7°C° 0 mm 5 mps 749 mmHg 57%
11:00 +8°C° 0 mm 5 mps 749 mmHg 50%
12:00 +8°C° 0 mm 5 mps 749 mmHg 49%
13:00 +8°C° 0 mm 5 mps 749 mmHg 48%
14:00 +9°C° 0 mm 6 mps 749 mmHg 47%
15:00 +8°C° 0.1 mm 5 mps 749 mmHg 50%
16:00 +8°C° 0.1 mm 5 mps 749 mmHg 53%
17:00 +7°C° 0.1 mm 5 mps 749 mmHg 56%
18:00 +6°C° 0 mm 4 mps 749 mmHg 62%
19:00 +4°C° 0 mm 3 mps 749 mmHg 67%
20:00 +4°C° 0 mm 2 mps 749 mmHg 73%
21:00 +4°C° 0 mm 2 mps 749 mmHg 76%
22:00 +3°C° 0 mm 2 mps 749 mmHg 78%
23:00 +2°C° 0 mm 2 mps 749 mmHg 81%

Day after tomorrow, 24 April, Saturday

Time Temperature Precipitation Wind Pressure Humidity
00:00 +2°C° 0 mm 2 mps 749 mmHg 83%
01:00 +1°C° 0 mm 2 mps 748 mmHg 85%
02:00 +1°C° 0 mm 2 mps 748 mmHg 87%
03:00 +1°C° 0 mm 2 mps 748 mmHg 88%
04:00 +1°C° 0 mm 2 mps 748 mmHg 88%
05:00 -1°C° 0 mm 2 mps 747 mmHg 89%
06:00 0°C° 0.7 mm 3 mps 748 mmHg 91%
07:00 -1°C° 0.7 mm 4 mps 748 mmHg 94%
08:00 -1°C° 0.7 mm 5 mps 748 mmHg 96%
09:00 0°C° 0.3 mm 5 mps 748 mmHg 89%
10:00 +1°C° 0.3 mm 6 mps 749 mmHg 82%
11:00 +2°C° 0.3 mm 6 mps 749 mmHg 75%
12:00 +3°C° 0.1 mm 6 mps 749 mmHg 68%
13:00 +4°C° 0.1 mm 6 mps 749 mmHg 60%
14:00 +5°C° 0.1 mm 6 mps 749 mmHg 53%
15:00 +5°C° 0.1 mm 6 mps 749 mmHg 56%
16:00 +4°C° 0.1 mm 6 mps 750 mmHg 59%
17:00 +5°C° 0.1 mm 5 mps 750 mmHg 61%
18:00 +3°C° 0.1 mm 5 mps 750 mmHg 67%
19:00 +2°C° 0.1 mm 5 mps 750 mmHg 72%
20:00 +1°C° 0.1 mm 4 mps 750 mmHg 77%
21:00 0°C° 0 mm 4 mps 750 mmHg 80%
22:00 0°C° 0 mm 4 mps 750 mmHg 82%
23:00 -1°C° 0 mm 4 mps 750 mmHg 85%

25 April, Sunday

Time Temperature Precipitation Wind Pressure Humidity
00:00 -1°C° 0 mm 4 mps 750 mmHg 86%
01:00 -2°C° 0 mm 4 mps 750 mmHg 87%
02:00 -2°C° 0 mm 4 mps 750 mmHg 88%
03:00 -2°C° 0 mm 4 mps 750 mmHg 88%
04:00 -3°C° 0 mm 4 mps 750 mmHg 89%
05:00 -3°C° 0 mm 4 mps 750 mmHg 89%
06:00 -2°C° 0 mm 4 mps 750 mmHg 80%
07:00 0°C° 0 mm 5 mps 750 mmHg 71%
08:00 +1°C° 0 mm 5 mps 750 mmHg 61%
09:00 +2°C° 0 mm 5 mps 750 mmHg 58%
10:00 +3°C° 0 mm 6 mps 750 mmHg 54%
11:00 +4°C° 0 mm 6 mps 750 mmHg 51%
12:00 +4°C° 0 mm 6 mps 750 mmHg 52%
13:00 +4°C° 0 mm 6 mps 750 mmHg 52%
14:00 +4°C° 0 mm 6 mps 750 mmHg 53%
15:00 +5°C° 0 mm 5 mps 750 mmHg 52%
16:00 +5°C° 0 mm 5 mps 750 mmHg 51%
17:00 +5°C° 0 mm 4 mps 750 mmHg 50%
18:00 +4°C° 0 mm 3 mps 750 mmHg 57%
19:00 +2°C° 0 mm 3 mps 750 mmHg 63%
20:00 +1°C° 0 mm 3 mps 750 mmHg 69%
21:00 +1°C° 0 mm 3 mps 750 mmHg 71%
22:00 0°C° 0 mm 3 mps 750 mmHg 74%
23:00 0°C° 0 mm 3 mps 750 mmHg 77%

26 April, Monday

Time Temperature Precipitation Wind Pressure Humidity
00:00 +1°C° 0 mm 2 mps 750 mmHg 79%
01:00 -1°C° 0 mm 2 mps 750 mmHg 81%
02:00 -1°C° 0 mm 2 mps 749 mmHg 83%
03:00 -1°C° 0.1 mm 2 mps 749 mmHg 84%
04:00 -1°C° 0.1 mm 2 mps 749 mmHg 85%
05:00 -1°C° 0.1 mm 2 mps 749 mmHg 86%
06:00 +1°C° 0.1 mm 2 mps 749 mmHg 83%
07:00 +2°C° 0.1 mm 2 mps 749 mmHg 80%
08:00 +3°C° 0.1 mm 2 mps 748 mmHg 77%
09:00 +2°C° 0.5 mm 3 mps 748 mmHg 77%
10:00 +3°C° 0.5 mm 4 mps 748 mmHg 78%
11:00 +2°C° 0.5 mm 5 mps 748 mmHg 78%
12:00 +3°C° 0.2 mm 5 mps 748 mmHg 71%
13:00 +3°C° 0.2 mm 5 mps 748 mmHg 63%
14:00 +5°C° 0.2 mm 5 mps 748 mmHg 56%
15:00 +5°C° 0.1 mm 4 mps 748 mmHg 57%
16:00 +5°C° 0.1 mm 4 mps 748 mmHg 58%
17:00 +5°C° 0.1 mm 4 mps 748 mmHg 59%
18:00 +3°C° 0 mm 4 mps 748 mmHg 65%
19:00 +2°C° 0 mm 3 mps 748 mmHg 71%
20:00 +1°C° 0 mm 3 mps 748 mmHg 78%
21:00 0°C° 0 mm 3 mps 748 mmHg 80%
22:00 -1°C° 0 mm 3 mps 748 mmHg 83%
23:00 -1°C° 0 mm 3 mps 748 mmHg 85%

27 April, Tuesday

Time Temperature Precipitation Wind Pressure Humidity
00:00 -1°C° 0 mm 3 mps 748 mmHg 86%
01:00 -2°C° 0 mm 3 mps 748 mmHg 87%
02:00 -2°C° 0 mm 2 mps 749 mmHg 89%
03:00 -2°C° 0 mm 2 mps 749 mmHg 89%
04:00 -2°C° 0 mm 2 mps 749 mmHg 90%
05:00 -2°C° 0 mm 2 mps 749 mmHg 91%
06:00 +1°C° 0 mm 2 mps 749 mmHg 83%
07:00 +3°C° 0 mm 2 mps 749 mmHg 76%
08:00 +4°C° 0 mm 3 mps 749 mmHg 69%
09:00 +5°C° 0 mm 3 mps 749 mmHg 63%
10:00 +7°C° 0 mm 3 mps 749 mmHg 57%
11:00 +7°C° 0 mm 4 mps 749 mmHg 50%
12:00 +8°C° 0 mm 4 mps 749 mmHg 49%
13:00 +8°C° 0 mm 4 mps 749 mmHg 48%
14:00 +9°C° 0 mm 5 mps 749 mmHg 47%
15:00 +8°C° 0 mm 4 mps 749 mmHg 49%
16:00 +8°C° 0 mm 4 mps 749 mmHg 50%
17:00 +9°C° 0 mm 3 mps 749 mmHg 52%
18:00 +8°C° 0 mm 3 mps 749 mmHg 57%
19:00 +6°C° 0 mm 2 mps 749 mmHg 62%
20:00 +5°C° 0 mm 1 mps 749 mmHg 67%
21:00 +5°C° 0 mm 1 mps 749 mmHg 68%
22:00 +4°C° 0 mm 1 mps 749 mmHg 68%
23:00 +4°C° 0 mm 1 mps 749 mmHg 69%
Show more